Regional Weather Roundup
Issued by NWS

Home | Current Version | Previous Version | Text Only | Print | Product List | Glossary On
Versions: 1 2 3 4 5 6 7 8 9 10 11 12 13 14 15 16 17 18 19 20 21 22 23 24 25 26 27 28 29 30 31 32 33 34 35 36 37 38 39 40 41 42 43 44 45 46 47 48 49 50
000
ASUS44 KJAN 180210
RWRMS

MISSISSIPPI HOURLY WEATHER ROUNDUP
NATIONAL WEATHER SERVICE JACKSON MS
800 PM CST TUE JAN 17 2017

NOTE: "FAIR: INDICATES FEW OR NO CLOUDS BELOW 12,000 FEET WITH NO
SIGNIFICANT WEATHER AND/OR OBSTRUCTIONS TO VISIBILITY.

MSZ001>002-007>008-010>013-018>021-025>028-034>036-180300-
NORTHWEST MISSISSIPPI

CITY           SKY/WX    TMP DP  RH WIND       PRES   REMARKS
BATESVILLE     CLOUDY    55  52  89 CALM      30.19R
CLARKSDALE     MOCLDY    54  54 100 NW3       30.19S
CLEVELAND      RAIN      55  55 100 NW7       30.18F
GREENWOOD      CLOUDY    55  52  89 CALM      30.17F
GREENVILLE     LGT RAIN  53  49  86 CALM      30.18R
OLIVE BRANCH   CLOUDY   N/A N/A N/A W3        30.17R
OXFORD         CLOUDY    54  52  94 NW5       30.19R
TUNICA         CLOUDY    50  45  81 NW5       30.20R
WINONA         LGT RAIN  56  56 100 CALM      30.17S
$$

MSZ003>006-009-014>017-022>024-029>033-037>039-180300-
NORTHEAST MISSISSIPPI

CITY           SKY/WX    TMP DP  RH WIND       PRES   REMARKS
COLUMBUS AFB   NOT AVBL
CORINTH        CLOUDY    55  50  82 NW7       30.16R
GOLDN TRIANGLE MOCLDY    63  57  82 W5        30.12R
STARKVILLE     LGT RAIN  63  61  94 CALM      30.17R
TUPELO         CLOUDY    57  54  89 CALM      30.15S
$$

MSZ040-058-180300-
CENTRAL MISSISSIPPI

CITY           SKY/WX    TMP DP  RH WIND       PRES   REMARKS
JACKSON INTL   MOCLDY    65  58  78 N7        30.15R
JACKSON HAWKNS CLOUDY    64  58  80 N5        30.16S
MADISON        FAIR      63  55  77 CALM      30.16S
MERIDIAN KEY   PTCLDY    64  62  93 CALM      30.15R
MERIDIAN NAS   MOCLDY    64  57  78 NW6       30.15R
RAYMOND        DRIZZLE   64  59  82 CALM      30.15S
VICKSBURG VKS  CLOUDY    61  57  88 N6        30.15S
$$

MSZ059>079-180300-
SOUTH MISSISSIPPI

CITY           SKY/WX    TMP DP  RH WIND       PRES   REMARKS
BROOKHAVEN     FAIR      66  63  88 CALM      30.16R
HATTIESBURG    PTCLDY    68  64  87 S6        30.15S
LAUREL         FAIR      67  66  99 CALM      30.15S
MCCOMB         MOCLDY    69  63  81 S3        30.14S
NATCHEZ        CLOUDY    61  55  82 N7        30.14F
PINE BELT      MOCLDY    64  59  82 S3        30.17S
$$

MSZ080>082-180300-
COASTAL MISSISSIPPI

CITY           SKY/WX    TMP DP  RH WIND       PRES   REMARKS
BAY ST LOUIS   PTCLDY    64  61  88 CALM      30.16S
BILOXI         CLOUDY    66  66 100 SE6       30.16F FOG
PASCAGOULA     FOG       67  66  97 SE5       30.18S VSB 1/4
GULFPORT       FOG       67  67 100 SE5       30.16S VSB 3/4
$$

LAZ007>009-015>016-023>026-180300-
NORTHEAST LOUISIANA

CITY           SKY/WX    TMP DP  RH WIND       PRES   REMARKS
BASTROP        FAIR      53  52  97 CALM      30.17S
TALLULAH/VBURG CLOUDY    58  55  90 N5        30.16S
VIDALIA        FAIR      60  57  89 N6        30.18R
$$



USA.gov is the U.S. government's official web portal to all federal, state and local government web resources and services.